Flagstaff, AZ

5:13 PM MST on February 13, 2016 (GMT -0700)
Flagstaff Pulliam

Weather History for KFLG - May, 2012

Change the Weather History Date:

Wednesday, May 16, 2012

  Actual Average Record
Temperature  
Mean Temperature 57 °F 52 °F  
Max Temperature 77 °F 68 °F 80 °F (1970)
Min Temperature 37 °F 35 °F 16 °F (1955)
Degree Days  
Heating Degree Days 8 13  
Month to date heating degree days 206 245  
Since 1 July heating degree days 6315 6601  
Cooling Degree Days 0 0  
Month to date cooling degree days 0 0  
Year to date cooling degree days 0 0  
Growing Degree Days 7 (Base 50)    
Moisture  
Dew Point 18 °F    
Average Humidity 31    
Maximum Humidity 54    
Minimum Humidity 8    
Precipitation  
Precipitation 0.00 in 0.02 in 0.30 in (1951)
Month to date precipitation 0.00 0.32  
Year to date precipitation 4.46 7.80  
Snow  
Snow 0.00 in 0.00 in 1.90 in (1944)
Month to date snowfall 0.0 0.6  
Since 1 July snowfall 102.9 101.6  
Snow Depth 0.00 in    
Sea Level Pressure  
Sea Level Pressure 29.90 in    
Wind  
Wind Speed 10 mph (SW)    
Max Wind Speed 30 mph    
Max Gust Speed 44 mph    
Visibility 10 miles    
Events      
T = Trace of Precipitation, MM = Missing Value Source: NWS Daily Summary

Daily Weather History Graph

Daily Weather History Graph

Search for Another Location

Airport or City:

Trip Planner

Search our weather history database for the weather conditions in past years. The results will help you decide how hot, cold, wet, or windy it might be!

Date:

Astronomy

May. 16, 2012 Rise Set
Actual Time 5:21 AM MST 7:24 PM MST
Civil Twilight 4:53 AM MST 7:53 PM MST
Nautical Twilight 4:19 AM MST 8:27 PM MST
Astronomical Twilight 3:42 AM MST 9:04 PM MST
Moon 2:45 AM MST (5/16) 3:50 PM MST (5/16)
Length of Visible Light 14h 59m
Length of Day
14h 03m
Waning Crescent, 15% of the Moon is Illuminated
May 16
Waning Crescent
May 20
New
May 28
First Quarter
Jun 4
Full
Jun 11
Last Quarter

Hourly Weather History & Observations

Time (MST) Temp. Dew Point Humidity Pressure Visibility Wind Dir Wind Speed Gust Speed Precip Events Conditions
12:57 AM 57.9 °F 23.0 °F 26% 29.86 in 10.0 mi South 8.1 mph - N/A   Clear
1:57 AM 45.0 °F 24.1 °F 44% 29.89 in 10.0 mi Calm Calm - N/A   Clear
2:57 AM 42.1 °F 24.1 °F 49% 29.91 in 10.0 mi Calm Calm - N/A   Clear
3:57 AM 41.0 °F 24.1 °F 51% 29.92 in 10.0 mi Calm Calm - N/A   Clear
4:57 AM 39.9 °F 24.1 °F 53% 29.93 in 10.0 mi Calm Calm - N/A   Clear
5:57 AM 39.9 °F 24.1 °F 53% 29.94 in 10.0 mi Calm Calm - N/A   Clear
6:57 AM 55.9 °F 27.0 °F 33% 29.91 in 10.0 mi SW 4.6 mph - N/A   Clear
7:57 AM 60.1 °F 26.1 °F 27% 29.92 in 10.0 mi South 10.4 mph - N/A   Clear
8:57 AM 64.9 °F 26.1 °F 23% 29.94 in 10.0 mi SW 13.8 mph 18.4 mph N/A   Clear
9:57 AM 66.9 °F 24.1 °F 20% 29.95 in 10.0 mi SSW 13.8 mph 26.5 mph N/A   Clear
10:57 AM 69.1 °F 24.1 °F 18% 29.95 in 10.0 mi SW 13.8 mph 26.5 mph N/A   Clear
11:57 AM 72.0 °F 19.9 °F 14% 29.93 in 10.0 mi WSW 16.1 mph 29.9 mph N/A   Clear
12:57 PM 73.0 °F 21.0 °F 14% 29.85 in 10.0 mi SW 21.9 mph 34.5 mph N/A   Clear
1:57 PM 75.9 °F 17.1 °F 11% 29.86 in 10.0 mi SW 21.9 mph 43.7 mph N/A   Clear
2:57 PM 75.0 °F 10.9 °F 9% 29.87 in 10.0 mi SW 19.6 mph 34.5 mph N/A   Clear
3:57 PM 75.0 °F 10.0 °F 8% 29.87 in 10.0 mi WSW 17.3 mph 28.8 mph N/A   Clear
4:57 PM 73.0 °F 9.0 °F 8% 29.88 in 10.0 mi WSW 19.6 mph 29.9 mph N/A   Clear
5:57 PM 73.0 °F 9.0 °F 8% 29.88 in 10.0 mi WSW 12.7 mph 20.7 mph N/A   Clear
6:57 PM 69.1 °F 10.0 °F 10% 29.84 in 10.0 mi SW 12.7 mph - N/A   Clear
7:57 PM 64.9 °F 10.0 °F 12% 29.86 in 10.0 mi WSW 10.4 mph - N/A   Clear
8:57 PM 64.0 °F 8.1 °F 11% 29.86 in 10.0 mi WSW 10.4 mph - N/A   Clear
9:57 PM 63.0 °F 7.0 °F 11% 29.86 in 10.0 mi WSW 9.2 mph - N/A   Clear
10:57 PM 51.1 °F 12.0 °F 21% 29.90 in 10.0 mi Calm Calm - N/A   Clear
11:57 PM 45.0 °F 12.0 °F 26% 29.92 in 10.0 mi Calm Calm - N/A   Clear